map of KTTA home
Great Circle Mapper logo
KTTA - Airport
Location
City:  Sanford, North Carolina, United States
Name:Raleigh Exec Jetport Airport at Sanford-Lee County
ICAO:KTTA
FAA:TTA

Details
Type:Airport (Airfield)
Use:Public/Civil
Latitude:3534'57"N (35.582444)
Longitude:7906'05"W (-79.101332)
Datum:WGS 1984
Elevation:246 ft (75 m)
Variation:8.8W (WMM2015 magnetic declination)
Runways:1
Longest:6500 × 100 ft (1981 × 30.5 m), paved

Time
Time Zone:UTC-5 (DST-4)
Local Time:

Weather
METAR:KTTA 221755Z AUTO 35007KT 1 3/4SM BR OVC004 04/04 A3011 RMK AO2 60001 T00400040 10040 20030

Related Locations
Nearby:
Farthest:MGV: 11628 mi / 18714 km
Margaret River, WA, AU

Find:

   beyond  
but within

Other Information
Maps:
NOTAMs:
Links:
Sources:

  
flag of United States
flag of North Carolina
  

Sectional Chart

Flight Planning
at skyvector.com

Satellite Image

Google Maps Satellite View

 

Copyright © 2004-2014 Karl L. Swartz. All rights reserved.
The Great Circle Mapper name and logo are trademarks of the Great Circle Mapper.
All other trademarks mentioned herein belong to their respective owners.
Please see credits for attibutions and further copyright information.

  Follow gcmap on Facebook Follow gcmap on Twitter

hCard Microformat

Geo Microformat